Location: Unspecified
(0.0000°N, 0.0000°E)
Time: 05:22:31
(UTC+00:00)

S-56A Canister/Altair - Visible Passes

Search period start: 21 May 2026 00:00
Search period end: 31 May 2026 00:00
Orbit: 633 x 2484 km, 38.9° (Epoch: 20 May)

Date Brightness Start Highest point End Pass type
(mag) Time Alt. Az. Time Alt. Az. Time Alt. Az.
21 May 9.3 03:33:35 50° S 03:33:35 50° S 03:43:04 10° SE visible
21 May 10.5 05:32:30 10° WSW 05:39:02 18° SSW 05:46:53 10° S visible
22 May 10.1 03:01:34 31° SSE 03:01:34 31° SSE 03:07:12 10° SE visible
22 May 10.2 04:58:54 15° SW 05:03:09 19° SSW 05:11:21 10° SSE visible
23 May 10.8 02:29:24 16° SE 02:29:24 16° SE 02:31:19 10° SE visible
23 May 10.1 04:26:43 21° SSW 04:27:23 22° SSW 04:35:47 10° SSE visible
24 May 10.3 03:54:24 22° S 03:54:24 22° S 04:00:13 10° SSE visible
25 May 10.7 03:21:57 16° SSE 03:21:57 16° SSE 03:24:39 10° SSE visible
